This is the latest recevied weather packets stored in our database for station/object N4QD-13. If no packets are shown the sender has not sent any weather packets the latest 10 day(s).
| Time | Temp. | Humidity | Pressure | Rain* | Wind** | Luminosity | Snow |
|---|---|---|---|---|---|---|---|
| 1777939598 | 18.89° C | 67% | 1012.2 hPa | 0 mm | - | 3 W/m² | - |
| 1777939297 | 18.89° C | 66% | 1012.1 hPa | 0 mm | - | 4 W/m² | - |
| 1777938992 | 18.89° C | 66% | 1012.1 hPa | 0 mm | - | 6 W/m² | - |
| 1777938689 | 18.89° C | 65% | 1012.1 hPa | 0 mm | - | 8 W/m² | - |
| 1777938386 | 18.89° C | 65% | 1011.8 hPa | 0 mm | - | 12 W/m² | - |
| 1777938084 | 18.89° C | 65% | 1012.2 hPa | 0 mm | - | 16 W/m² | - |
| 1777937779 | 19.44° C | 65% | 1012.2 hPa | 0 mm | - | 24 W/m² | - |
| 1777937475 | 19.44° C | 63% | 1012.3 hPa | 0 mm | - | 25 W/m² | - |
| 1777937173 | 19.44° C | 62% | 1012.3 hPa | 0 mm | - | 28 W/m² | - |
| 1777936870 | 20° C | 62% | 1012.1 hPa | 0 mm | - | 35 W/m² | - |
| 1777936567 | 20.56° C | 60% | 1011.9 hPa | 0 mm | - | 45 W/m² | - |
| 1777936263 | 20.56° C | 58% | 1012 hPa | 0 mm | - | 56 W/m² | - |
| 1777935959 | 21.67° C | 56% | 1011.7 hPa | 0 mm | - | 70 W/m² | - |
| 1777935658 | 22.78° C | 49% | 1012 hPa | 0 mm | - | 68 W/m² | - |
| 1777935355 | 22.78° C | 49% | 1011.5 hPa | 0 mm | - | 64 W/m² | - |
| 1777935052 | 22.22° C | 49% | 1011.5 hPa | 0 mm | - | 66 W/m² | - |
| 1777934749 | 22.22° C | 50% | 1011.6 hPa | 0 mm | - | 36 W/m² | - |
| 1777934446 | 22.22° C | 49% | 1011.5 hPa | 0 mm | - | 29 W/m² | - |
| 1777934143 | 22.22° C | 48% | 1011.8 hPa | 0 mm | - | 30 W/m² | - |
| 1777933838 | 22.22° C | 48% | 1011.8 hPa | 0 mm | - | 49 W/m² | - |
| 1777933536 | 22.22° C | 49% | 1011.5 hPa | 0 mm | - | 71 W/m² | - |
| 1777933233 | 22.22° C | 48% | 1011.7 hPa | 0 mm | - | 78 W/m² | - |
| 1777932930 | 22.78° C | 48% | 1011.8 hPa | 0 mm | - | 52 W/m² | - |
| 1777932627 | 22.78° C | 48% | 1011.5 hPa | 0 mm | - | 52 W/m² | - |
| 1777932323 | 22.78° C | 47% | 1011.8 hPa | 0 mm | - | 110 W/m² | - |
* Rain latest hour (hover to see other rain measurements)
** Current wind speed in m/s (hover to see current wind gust speed)